This demonstration page uses our WeatherBlox Daily Observations layout. Learn more.

Left ArrowRight Arrow

30.21309, -93.2044

Hourly Observations for January 17, 2022

Temp ( °F °C ) Dew Point ( °F °C ) Humidity (%) Winds ( mph kmh ) Pressure ( in mb ) Visibility ( mi km ) Precip ( " mm )
12:15 am 00:15 Clear 41 5.2 33 0.7 73 73 NW 5 7 30.10 1019 10 16 0.00 0.00
12:35 am 00:35 Clear 38 3.6 32 0 78 78 NW 5 7 30.09 1019 10 16 0.00 0.00
12:55 am 00:55 Clear 40 4.2 33 0.3 76 76 NW 5 7 30.10 1019 10 16 0.00 0.00
1:15 am 01:15 Clear 40 4.7 33 0.6 75 75 WNW 6 9 30.10 1019 10 16 0.00 0.00
1:35 am 01:35 Clear 39 4 32 0.1 76 76 NW 5 7 30.11 1020 10 16 0.00 0.00
1:55 am 01:55 Clear 40 4.3 33 0.4 76 76 NW 5 7 30.11 1020 10 16 0.00 0.00
2:15 am 02:15 Clear 39 3.7 32 0.1 78 78 NW 6 9 30.11 1020 10 16 0.00 0.00
2:35 am 02:35 Clear 39 3.8 32 0 77 77 NW 5 7 30.11 1020 10 16 0.00 0.00
2:55 am 02:55 Clear 38 3.4 32 0 79 79 NW 6 9 30.12 1020 10 16 0.00 0.00
3:15 am 03:15 Clear 38 3.4 32 -0.1 78 78 NW 7 11 30.12 1020 10 16 0.00 0.00
3:35 am 03:35 Clear 38 3.2 31 -0.3 78 78 NW 6 9 30.12 1020 10 16 0.00 0.00
3:55 am 03:55 Clear 37 3 32 -0.2 80 80 NW 5 7 30.12 1020 10 16 0.00 0.00
4:15 am 04:15 Clear 37 3 32 -0.2 80 80 NW 5 7 30.12 1020 10 16 0.00 0.00
4:35 am 04:35 Clear 38 3.2 32 -0.2 79 79 NW 5 7 30.12 1020 10 16 0.00 0.00
4:55 am 04:55 Clear 38 3.6 32 0.1 78 78 Calm 30.12 1020 10 16 0.00 0.00
5:15 am 05:15 Clear 35 1.7 31 -0.5 86 86 Calm 30.12 1020 10 16 0.00 0.00
5:35 am 05:35 Clear 36 2.2 31 -0.3 84 84 NW 3 6 30.12 1020 10 16 0.00 0.00
6:00 am 06:00 Mostly Clear 36 2 30 -1 81 81 Calm 30.13 1020 10 16 0.00 0.00
6:45 am 06:45 Mostly Clear 37 3 32 0 81 81 Calm 30.15 1021 10 16 0.00 0.00
7:50 am 07:50 Mostly Sunny 37 3 32 0 81 81 Calm 30.16 1021 10 16 0.00 0.00
8:55 am 08:55 Mostly Sunny 45 7 34 1 66 66 N 8 13 30.19 1022 10 16 0.00 0.00
9:50 am 09:50 Mostly Sunny 48 9 34 1 58 58 N 6 9 30.20 1023 10 16 0.00 0.00
10:45 am 10:45 Mostly Sunny 54 12 34 1 47 47 NNW 6 9 30.21 1023 10 16 0.00 0.00
11:55 am 11:55 Mostly Sunny 57 14 34 1 41 41 Calm 30.18 1022 10 16 0.00 0.00
12:45 pm 12:45 Mostly Sunny 61 16 32 0 34 34 NNW 5 7 30.15 1021 10 16 0.00 0.00
1:45 pm 13:45 Mostly Sunny 63 17 30 -1 30 30 WNW 12 19 30.13 1020 10 16 0.00 0.00
2:51 pm 14:51 Mostly Sunny 63 17 30 -1 30 30 NW 9 15 30.12 1020 10 16 0.00 0.00
3:55 pm 15:55 Mostly Sunny 63 17 30 -1 30 30 NNW 5 7 30.12 1020 10 16 0.00 0.00
4:49 pm 16:49 Mostly Sunny 63 17 30 -1 30 30 NW 5 7 30.12 1020 10 16 0.00 0.00
5:55 pm 17:55 Mostly Clear 54 12 36 2 51 51 Calm 30.12 1020 10 16 0.00 0.00
6:47 pm 18:47 Mostly Clear 50 10 36 2 58 58 Calm 30.14 1021 10 16 0.00 0.00
7:51 pm 19:51 Mostly Clear 45 7 36 2 71 71 S 6 9 30.15 1021 10 16 0.00 0.00
8:55 pm 20:55 Mostly Clear 43 6 37 3 81 81 Calm 30.16 1021 10 16 0.00 0.00
9:55 pm 21:55 Mostly Clear 41 5 37 3 87 87 Calm 30.17 1022 10 16 0.00 0.00
10:15 pm 22:15 Clear 42 5.5 39 3.8 89 89 Calm 30.16 1021 10 16 0.00 0.00
10:35 pm 22:35 Clear 42 5.3 39 3.9 91 91 S 3 6 30.17 1022 10 16 0.00 0.00
10:55 pm 22:55 Clear 42 5.4 39 3.9 90 90 Calm 30.17 1022 10 16 0.00 0.00
11:15 pm 23:15 Clear 42 5.3 39 3.9 91 91 Calm 30.16 1021 10 16 0.00 0.00
11:35 pm 23:35 Clear 43 6.1 40 4.6 90 90 SSE 3 6 30.16 1021 10 16 0.00 0.00
11:55 pm 23:55 Clear 41 4.8 38 3.6 92 92 S 5 7 30.15 1021 10 16 0.00 0.00

Powered by AerisWeather